Location: Newark
(49.0903°N, 0.8053°W)
Time: 03:50:25
(UTC+00:00)

N. Korean satellite - Visible Passes

Search period start: 19 September 2020 00:00
Search period end: 29 September 2020 00:00
Orbit: 455 x 503 km, 97.2° (Epoch: 18 September)

Date Brightness Start Highest point End Pass type
(mag) Time Alt. Az. Time Alt. Az. Time Alt. Az.
19 Sep 9.7 04:49:49 10° NE 04:52:34 20° E 04:55:17 10° SE visible
20 Sep 10.4 04:25:38 10° ENE 04:26:18 10° E 04:26:57 10° E visible
22 Sep 9.0 05:04:47 10° NE 05:08:00 28° E 05:11:11 10° SSE visible
23 Sep 9.9 04:39:35 10° NE 04:41:47 15° E 04:43:59 10° SE visible
25 Sep 8.1 05:19:53 10° NNE 05:23:24 41° E 05:26:50 10° S visible
26 Sep 9.5 04:54:20 10° NE 04:57:13 22° E 05:00:04 10° SE visible
27 Sep 10.2 04:29:40 10° ENE 04:30:57 12° E 04:32:15 10° ESE visible
